Location: Cornelius Cemetery
(36.9614°N, 87.6253°W)
Time: 07:59:59
(UTC+00:00)

Daily predictions for brighter satellites

Satellite Brightness Start Highest point End
(mag) Time Altitude Azimuth Time Altitude Azimuth Time Altitude Azimuth
OPS 8737 4.4 12:00:01 10° SSW 12:03:31 77° ESE 12:06:41 10° NE
PSLV R/B 3.9 12:01:40 20° WNW 12:03:40 41° N 12:06:53 10° ENE
Cosmos 2058 3.7 12:01:11 10° NNW 12:04:47 30° W 12:08:24 10° SSW
Atlas 2A Centaur Rocket 3.8 12:06:28 10° SSW 12:07:37 12° S 12:08:33 10° SSE
Cosmos 2112 Rocket 4.1 12:02:26 10° NNW 12:07:48 84° ENE 12:13:09 10° SSE
YAOGAN 1 3.1 12:04:41 10° NNE 12:09:01 64° ESE 12:13:17 10° S
DELTA 2 R/B(2) 4.3 12:10:13 10° SW 12:12:01 47° SSE 12:14:46 10° ENE
Cosmos 1184 Rocket 2.8 12:10:14 10° NNW 12:13:30 57° W 12:16:45 10° S
Cosmos 1340 Rocket 4.0 12:10:54 10° NW 12:14:00 22° W 12:17:07 10° SW
Cosmos 2221 3.5 12:10:40 10° SW 12:14:16 25° WNW 12:17:52 10° NNW
Milstar 3 Cent rocket 4.1 12:12:07 10° SW 12:18:21 27° S 12:22:39 10° ESE
Cosmos 292 Rocket 4.0 12:13:50 10° NNW 12:18:29 52° WSW 12:23:08 10° S
NOSS 3-1 (A) 4.3 12:10:55 10° NW 12:18:34 59° WSW 12:26:49 10° SSE
Cosmos 1666 Rocket 3.7 12:16:10 10° NNW 12:20:32 56° W 12:24:55 10° S
Cosmos 1943 3.2 12:16:15 10° NNW 12:21:59 84° WSW 12:27:39 10° SSE
Cosmos 1484 Rocket 3.8 12:19:26 10° NNE 12:23:22 53° E 12:27:13 10° S
APEX 3.0 12:21:55 10° SSW 12:26:00 71° WNW 12:29:16 10° NNE
SMAP 3.0 12:22:23 10° N 12:27:02 69° WNW 12:31:38 10° SSW
ATLAS 2AS CENTAUR R/B 3.7 12:19:33 10° NNW 12:27:26 55° NE 12:34:44 10° SE
Cosmos 1356 Rocket 4.2 12:24:00 10° NNW 12:27:41 32° W 12:31:23 10° SSW
Helios 1B rocket 2.7 12:23:46 10° SSE 12:27:51 75° ENE 12:31:57 10° N
Tiangong 2 1.3 12:26:19 10° W 12:29:23 52° NNW 12:32:28 10° ENE
CORIOLIS 4.2 12:25:07 10° NNE 12:30:34 85° WNW 12:36:00 10° SSW
Cosmos 1933 Rocket 4.0 12:27:44 10° N 12:32:10 68° E 12:36:33 10° SSE
USA 215 4.1 23:21:16 10° E 23:26:46 30° NNE 23:32:17 10° NNW
Cosmos 1743 Rocket 3.8 23:26:44 10° S 23:31:11 78° W 23:35:41 10° N
Meteor 1-28 Rocket 4.3 23:28:10 10° NE 23:31:13 24° E 23:34:16 10° SSE
Lacrosse 5 rocket 2.6 23:30:34 10° NNW 23:33:29 20° NE 23:36:30 10° E
Cosmos 1328 Rocket 3.8 23:31:54 10° N 23:36:22 79° W 23:40:47 10° S
BREEZE-M DEB (TANK) 4.2 23:36:20 10° WNW 23:39:22 51° SW 23:47:54 10° SE
Cosmos 44 Rocket 4.0 23:35:57 10° SW 23:41:00 58° WNW 23:46:01 10° NNE
CZ-4 R/B 2.9 23:40:18 10° S 23:43:57 40° W 23:47:39 10° NNW
Cosmos 1980 3.7 23:38:18 10° SSW 23:43:58 85° ESE 23:49:41 10° NNE
Meteor 2-10 4.4 23:39:25 10° N 23:44:12 39° ENE 23:49:04 10° SE
Cosmos 1515 Rocket 3.7 23:41:16 10° N 23:45:45 85° W 23:50:10 10° S
Cosmos 1151 Rocket 3.0 23:42:21 10° N 23:46:36 64° E 23:50:51 10° SSE
Cosmos 1328 3.8 23:43:51 10° S 23:47:47 85° W 23:51:45 10° N
Cosmos 1805 Rocket 4.4 23:46:19 10° SSE 23:50:14 31° E 23:54:09 10° NNE
SKYMED 2 3.5 23:46:56 10° NNE 23:51:17 72° ESE 23:55:36 10° S
Cosmos 1125 Rocket 3.4 23:48:11 10° NNW 23:53:24 75° ENE 23:58:34 10° SSE
